Flag for Switzerland Weather past 2 weeks in Reinach, Basel-Land, Switzerland

Now
32 °F

Passing clouds.


Feels Like: 29 °F
Forecast: 34 / 42 °F
Wind: 3 mph from Southwest

Location: Bale-Mulhouse

Current Time: Mar 5, 2015 at 12:39:53 AM

Latest Report: Mar 4, 2015 at 11:00 PM


Visibility: 9 mi

Pressure: 30.53 "Hg

Humidity: 92%

Dew point: 30 °F

Location of ReinachLocation

Historic Weather in Reinach — Graph

°F

Reinach temperature yesterday

Maximum temperature yesterday: 47 °F (at 12:00 AM)
Minimum temperature yesterday: 32 °F (at 11:00 PM)
Average temperature yesterday: 40 °F

Past Weeks' High & Low Weather Summary

 TemperatureHumidityPressure
High60 °F (Feb 20, 4:00 PM)99% (Feb 28, 9:00 AM)30.73 "Hg (Feb 28, 9:00 AM)
Low28 °F (Feb 19, 8:00 AM)19% (Feb 20, 5:00 PM)29.59 "Hg (Feb 21, 7:00 AM)
Average40 °F78%30.08 "Hg
* Reported Feb 17 11:00 PM — Mar 4 11:00 PM, Reinach, Weather by CustomWeather, © 2015

Note: Actual official high and low records may vary slightly from our data, if they occured in-between our weather recording intervals... More about our weather records

Advertising

Reinach weather history for previous 24 hours

 ConditionsComfort  
Time TempWeatherWind HumidityBarometerVisibility
11:00 PM
Wed, Mar 4
32 °FPassing clouds.3 mph92%30.53 "Hg9 mi
9:00 PM33 °FPassing clouds.2 mph88%30.49 "Hg19 mi
8:00 PM35 °FPassing clouds.1 mph86%30.47 "Hg19 mi
7:00 PM38 °FPassing clouds.3 mph82%30.44 "Hg19 mi
6:00 PM40 °FPartly sunny.5 mph74%30.41 "Hg19 mi
5:00 PM40 °FOvercast.3 mph73%30.40 "Hg19 mi
4:00 PM43 °FOvercast.9 mph62%30.39 "Hg19 mi
3:00 PM47 °FOvercast.6 mph50%30.35 "Hg19 mi
2:00 PM46 °FOvercast.9 mph58%30.37 "Hg19 mi
1:00 PM45 °FOvercast.8 mph59%30.38 "Hg19 mi
12:00 PM44 °FOvercast.7 mph53%30.39 "Hg19 mi
11:00 AM43 °FOvercast.6 mph74%30.39 "Hg19 mi
10:00 AM42 °FOvercast.7 mph77%30.38 "Hg19 mi
9:00 AM39 °FOvercast.3 mph85%30.37 "Hg19 mi
8:00 AM38 °FOvercast.5 mph85%30.35 "Hg37 mi
7:00 AM38 °FOvercast.9 mph85%30.33 "Hg12 mi
6:00 AM38 °FOvercast.10 mph83%30.32 "Hg12 mi
5:00 AM39 °FOvercast.13 mph83%30.32 "Hg12 mi
4:00 AM39 °FOvercast.10 mph83%30.30 "Hg37 mi
3:00 AM40 °FLight rain. Overcast.8 mph87%30.30 "Hg28 mi
2:00 AM41 °FLight rain. Overcast.13 mph89%30.28 "Hg12 mi
1:00 AM44 °FLight rain. Overcast.13 mph82%30.25 "Hg16 mi
12:00 AM47 °FLight rain. Overcast.9 mph62%30.22 "Hg12 mi
Weather by CustomWeather, © 2015

See weather overviewHow to use our weather pages